Tracking 33744 objects as of 14-Apr-2026
HD Live streaming from Space Station
objects crossing your sky now

STARLINK-31642

Track STARLINK-31642 now!
10-day predictions
STARLINK-31642 is classified as:


NORAD ID: 59726
Int'l Code: 2024-088U
Perigee: 481.6 km
Apogee: 483.2 km
Inclination: 53.2 °
Period: 94.1 minutes
Semi major axis: 6853 km
RCS: Unknown
Launch date: May 10, 2024
Source: United States (US)
Launch site: AIR FORCE WESTERN TEST RANGE (AFWTR)
Your satellite tracking list
Your tracking list is empty




NASA's NSSDC Master Catalog

Two Line Element Set (TLE):
1 59726U 24088U   26103.92879580  .00001338  00000-0  57300-4 0  9995
2 59726  53.1611 336.4953 0001191  88.6804 271.4333 15.30192283109071
Source of the keplerian elements: AFSPC